Location: Newark
(35.5300°N, 14.3000°E)
Time: 20:57:54
(UTC+00:00)

Transit 4A - Pass Details

Date: 27 November 2019
Orbit: 872 x 973 km, 66.8° (Epoch: 28 January)

Event Time Altitude Azimuth Distance (km) Brightness Sun altitude
Rises 18:05:55 0° 192° (SSW) 3,632 11.2 -27.1°
Reaches altitude 10° 18:08:32 10° 188° (S) 2,680 10.4 -27.6°
Enters shadow 18:12:39 39° 164° (SSE) 1,377 8.6 -28.4°
